WFO RAH Logo

WFO RAH Text Data

ASUS42 KRAH 280610
RWRRAH
NORTH CAROLINA WEATHER ROUNDUP
NATIONAL WEATHER SERVICE RALEIGH NC
100 AM EST MON FEB 28 2005

NOTE: "FAIR" INDICATES FEW OR NO CLOUDS BELOW 12,000 FEET WITH NO
SIGNIFICANT WEATHER AND/OR OBSTRUCTIONS TO VISIBILITY.

NCZ001-053-055-056-065-067-280700-
WESTERN NORTH CAROLINA
  
CITY           SKY/WX    TMP DP  RH WIND       PRES   REMARKS
ASHEVILLE      LGT SNOW  33  31  92 VRB6      29.78F VSB 1   WCI  28  
JEFFERSON      LGT SNOW  36  32  87 N3        29.77F VSB 3/4          
HICKORY        LGT SNOW  33  32  96 N7        29.82F FOG     WCI  27  
RUTHERFORDTON  NOT AVBL                                               
MOUNT AIRY     NOT AVBL                                               
$$
 
NCZ021-022-025-041-071-084-088-280700-
CENTRAL NORTH CAROLINA
  
CITY           SKY/WX    TMP DP  RH WIND       PRES   REMARKS
CHARLOTTE      RAIN      37  35  92 N14G24    29.77F FOG     WCI  28  
GREENSBORO     LGTSLEET  33  33 100 NE16      29.86F WCI  23          
WINSTON-SALEM  LGT RAIN  34  31  88 NE15G25   29.86F WCI  24          
RALEIGH-DURHAM LGT RAIN  34  32  92 N14G22    29.85F FOG     WCI  25  
FORT BRAGG     LGT RAIN  36  34  93 NE9G18    29.74F WCI  29          
FAYETTEVILLE   LGT RAIN  38  35  89 NE20G26   29.72F WCI  28          
$$
 
NCZ011-015-027-028-043-044-047-080-103-280700-
NORTHEASTERN NORTH CAROLINA
  
CITY           SKY/WX    TMP DP  RH WIND       PRES   REMARKS
ROANOKE RAPIDS FRZ RAIN  33  30  88 N12G20    29.92F FOG     WCI  24  
ROCKY MT-WILSO LGT RAIN  33  31  92 NE16G23   29.87F WCI  23          
GREENVILLE     FLURRIES  37  34  87 NE13      29.83F WCI  29          
ELIZABETH CITY RAIN      41  39  93 NE17      29.90F                  
MANTEO         RAIN      48  45  87 NE12      29.87F                  
CAPE HATTERAS  RAIN      49  47  93 E14       29.84F FOG              
$$
 
NCZ078-087-090-091-093-098-101-280700-
SOUTHEASTERN NORTH CAROLINA
  
CITY           SKY/WX    TMP DP  RH WIND       PRES   REMARKS
LUMBERTON      LGT RAIN  39  37  92 NE17G23   29.70F FOG     WCI  30  
KINSTON        LGT RAIN  39  39 100 NE16G28   29.76F WCI  30          
NEW BERN       LGT RAIN  44  42  93 NE16G22   29.75F                  
CHERRY POINT   LGT RAIN  47  46  97 NE21G26   29.72F FOG              
BEAUFORT       HVY RAIN  52  50  93 E21G32    29.72F FOG              
WILMINGTON     LGT RAIN  48  46  93 E23G33    29.64F FOG              
$$